Location: La Tine
(46.4708°N, 7.0525°E)
Time: 01:51:34
(UTC+00:00)

Okean 2 - Pass Details

Date: 18 September 2020
Orbit: 559 x 577 km, 82.5° (Epoch: 31 October)

Event Time Altitude Azimuth Distance (km) Brightness Sun altitude
Rises 18:28:25 0° 348° (NNW) 2,805 7.3 -9.6°
Reaches altitude 10° 18:30:38 10° 345° (NNW) 1,900 6.4 -10.0°
Maximum altitude 18:34:47 65° 264° (W) 635 3.9 -10.7°
Drops below altitude 10° 18:38:54 10° 183° (S) 1,877 5.9 -11.4°
Sets 18:41:04 0° 180° (S) 2,768 6.7 -11.8°
